GW4372 Weather Reports


time (UTC)temp
C
wind
direction
speed
KPH
gust
KPH
rain 1hr
cm
rain 24hr
cm
rain mn
cm
humidity
%
barometer
mb
20260503034648 21 184 1.6 3.2 0.00 0.84 0.84 99 1013.0
20260503034145 21 189 1.6 1.6 0.00 0.84 0.84 99 1012.9
20260503033642 21 191 1.6 3.2 0.00 0.84 0.84 99 1012.6
20260503033140 21 170 0.0 0.0 0.00 0.84 0.84 99 1012.3
20260503032638 21 175 0.0 1.6 0.00 0.84 0.84 99 1012.0
20260503032136 21 216 0.0 3.2 0.00 0.84 0.84 99 1011.9
20260503031628 21 74 0.0 1.6 0.00 0.84 0.84 99 1011.7
20260503031126 21 194 0.0 0.0 0.00 0.84 0.84 99 1011.3
20260503030621 21 180 0.0 0.0 0.00 0.84 0.84 99 1010.9
20260503030118 21 175 0.0 0.0 0.00 0.84 0.84 99 1011.1
20260503025614 21 176 0.0 3.2 0.00 0.84 0.84 99 1010.7
20260503025112 21 172 0.0 1.6 0.00 0.84 0.84 99 1010.8
20260503024608 21 167 0.0 4.8 0.18 0.84 0.84 99 1010.8
20260503024100 21 164 0.0 4.8 0.18 0.84 0.84 99 1011.2
20260503023557 21 171 1.6 1.6 0.00 0.81 0.81 99 1011.5
20260503023054 21 179 0.0 0.0 0.00 0.81 0.81 99 1011.7
20260503022550 21 166 0.0 3.2 0.13 0.81 0.81 99 1011.7
20260503022045 21 185 1.6 1.6 0.18 0.79 0.79 99 1012.0
20260503021542 21 183 0.0 1.6 0.48 0.79 0.79 99 1011.8
20260503021039 21 182 3.2 9.7 0.43 0.76 0.76 99 1011.6
20260503020536 21 180 1.6 4.8 0.13 0.71 0.71 99 1011.7
20260503020033 22 187 3.2 9.7 0.36 0.69 0.69 99 1011.5
20260503015529 22 193 3.2 3.2 0.36 0.69 0.69 99 1011.5
20260503015026 22 175 1.6 1.6 0.00 0.64 0.64 99 1011.4
20260503014517 22 180 0.0 0.0 0.00 0.64 0.64 99 1011.2
20260503014015 22 184 1.6 1.6 0.00 0.64 0.64 99 1011.1
20260503013512 22 180 1.6 1.6 0.00 0.64 0.64 99 1010.8
20260503013010 22 170 1.6 3.2 0.00 0.64 0.64 99 1011.2
20260503012507 22 170 1.6 3.2 0.00 0.64 0.64 99 1011.2
20260503012003 22 176 0.0 0.0 0.00 0.64 0.64 99 1011.2
20260503011500 22 180 3.2 3.2 0.00 0.64 0.64 99 1011.4
20260503010957 22 177 0.0 1.6 0.00 0.64 0.64 99 1011.5
20260503010453 22 176 0.0 0.0 0.00 0.64 0.64 99 1011.4
20260503005951 22 179 0.0 0.0 0.00 0.64 0.64 99 1011.6
20260503005448 22 176 0.0 0.0 0.00 0.64 0.64 99 1011.3
20260503004944 22 179 0.0 0.0 0.00 0.64 0.64 99 1011.3
20260503004441 22 174 0.0 1.6 0.00 0.64 0.64 99 1011.1
20260503003939 22 180 0.0 1.6 0.00 0.64 0.64 99 1010.9
20260503003436 22 175 0.0 0.0 0.00 0.64 0.64 99 1010.9
20260503002933 22 176 1.6 1.6 0.13 0.64 0.64 99 1011.0
20260503002430 22 170 1.6 3.2 0.13 0.64 0.64 99 1011.2
20260503001926 22 177 0.0 1.6 0.00 0.61 0.61 99 1011.4
20260503001423 22 166 0.0 0.0 0.18 0.61 0.61 99 1010.8
20260503000921 22 178 0.0 1.6 0.18 0.61 0.61 99 1011.3
20260503000417 22 181 0.0 0.0 0.00 0.58 0.58 99 1011.0
20260502235914 22 199 1.6 3.2 0.00 0.58 0.58 99 1011.0
20260502235411 22 171 0.0 0.0 0.00 0.58 0.58 99 1010.5
20260502234908 22 174 0.0 0.0 0.00 0.58 0.58 99 1010.9
20260502234359 22 183 0.0 1.6 0.00 0.58 0.58 99 1011.0
20260502233856 22 184 0.0 0.0 0.00 0.58 0.58 99 1011.2
20260502233352 22 180 0.0 3.2 0.00 0.58 0.58 99 1011.2
20260502232849 22 177 0.0 0.0 0.00 0.58 0.58 99 1011.0
20260502232345 22 191 1.6 1.6 0.00 0.58 0.58 98 1011.0
20260502231842 22 191 1.6 1.6 0.00 0.58 0.58 98 1011.1
20260502231340 22 191 1.6 1.6 0.00 0.58 0.58 98 1010.9
20260502230838 22 169 0.0 0.0 0.00 0.58 0.58 98 1010.7
20260502230335 22 177 0.0 0.0 0.00 0.58 0.58 98 1010.9
20260502225831 22 190 0.0 0.0 0.00 0.58 0.58 97 1011.0
20260502225328 22 177 0.0 0.0 0.13 0.58 0.58 96 1010.9
20260502224826 22 178 1.6 1.6 0.89 0.58 0.58 95 1010.9
20260502224321 22 195 3.2 4.8 3.17 0.53 0.53 92 1010.9
20260502223819 24 186 1.6 12.9 2.16 0.36 0.36 87 1010.7
20260502223317 28 153 6.4 12.9 0.00 0.00 0.00 76 1010.5
20260502222815 28 182 4.8 11.3 0.00 0.00 0.00 77 1009.7
20260502222312 28 320 6.4 9.7 0.00 0.00 0.00 77 1009.6
20260502221808 28 200 1.6 3.2 0.00 0.00 0.00 77 1009.7
20260502221303 28 192 4.8 6.4 0.00 0.00 0.00 76 1009.5
20260502220801 28 248 6.4 9.7 0.00 0.00 0.00 75 1009.5
20260502220257 28 230 6.4 16.1 0.00 0.00 0.00 75 1009.9
20260502215754 28 273 8.0 14.5 0.00 0.00 0.00 74 1009.7
20260502215251 28 237 14.5 20.9 0.00 0.00 0.00 73 1009.6
20260502214748 28 281 3.2 9.7 0.00 0.00 0.00 71 1009.6
20260502214244 28 295 6.4 9.7 0.00 0.00 0.00 69 1009.4
20260502213742 29 200 6.4 6.4 0.00 0.00 0.00 68 1009.3
20260502213239 29 250 11.3 14.5 0.00 0.00 0.00 67 1009.4
20260502212738 30 235 4.8 11.3 0.00 0.00 0.00 65 1009.3
20260502212236 29 231 8.0 12.9 0.00 0.00 0.00 64 1009.2
20260502211732 29 214 9.7 12.9 0.00 0.00 0.00 64 1009.1
20260502211229 30 259 9.7 12.9 0.00 0.00 0.00 63 1009.3
20260502210726 30 212 6.4 9.7 0.00 0.00 0.00 62 1009.2
20260502210223 30 223 3.2 6.4 0.00 0.00 0.00 62 1009.1
20260502205720 30 235 14.5 16.1 0.00 0.00 0.00 62 1009.0
20260502205216 30 187 4.8 16.1 0.00 0.00 0.00 62 1009.0
20260502204713 30 223 8.0 16.1 0.00 0.00 0.00 60 1009.0
20260502204211 31 247 9.7 11.3 0.00 0.00 0.00 56 1008.6
20260502203708 32 193 9.7 14.5 0.00 0.00 0.00 55 1009.0
20260502203206 32 257 14.5 22.5 0.00 0.00 0.00 55 1009.0
20260502202659 32 242 4.8 16.1 0.00 0.00 0.00 53 1008.8
20260502202158 32 135 6.4 12.9 0.00 0.00 0.00 55 1008.9
20260502201655 32 255 12.9 16.1 0.00 0.00 0.00 53 1008.8
20260502201146 32 187 6.4 14.5 0.00 0.00 0.00 54 1009.1
20260502200642 32 218 11.3 20.9 0.00 0.00 0.00 52 1008.8
20260502200139 32 270 6.4 11.3 0.00 0.00 0.00 55 1008.7
20260502195637 32 191 1.6 3.2 0.00 0.00 0.00 56 1008.8
20260502195133 32 191 3.2 4.8 0.00 0.00 0.00 55 1008.7
20260502194630 33 228 3.2 6.4 0.00 0.00 0.00 55 1008.9
20260502194127 32 203 6.4 9.7 0.00 0.00 0.00 55 1008.8
20260502193623 32 202 6.4 17.7 0.00 0.00 0.00 54 1009.0
20260502193120 32 245 11.3 14.5 0.00 0.00 0.00 54 1009.1
20260502192616 32 215 3.2 9.7 0.00 0.00 0.00 54 1009.2
20260502192114 32 187 11.3 17.7 0.00 0.00 0.00 54 1009.3
20260502191610 32 212 9.7 11.3 0.00 0.00 0.00 54 1009.3
20260502191107 32 256 12.9 17.7 0.00 0.00 0.00 55 1009.4
20260502190605 32 191 6.4 12.9 0.00 0.00 0.00 54 1009.3
20260502185556 32 238 9.7 14.5 0.00 0.00 0.00 53 1009.7
20260502185048 32 241 8.0 12.9 0.00 0.00 0.00 57 1009.7
20260502184544 32 242 9.7 14.5 0.00 0.00 0.00 56 1009.9
20260502184040 32 312 9.7 14.5 0.00 0.00 0.00 57 1009.8
20260502183536 32 233 6.4 12.9 0.00 0.00 0.00 54 1010.1
20260502183032 32 210 3.2 16.1 0.00 0.00 0.00 57 1010.0
20260502182527 32 198 8.0 17.7 0.00 0.00 0.00 55 1010.1
20260502182018 32 236 11.3 17.7 0.00 0.00 0.00 53 1010.0
20260502181516 32 199 6.4 16.1 0.00 0.00 0.00 54 1010.1
20260502181015 32 268 6.4 14.5 0.00 0.00 0.00 57 1010.1
20260502180511 32 233 11.3 17.7 0.00 0.00 0.00 59 1010.0
20260502170429 32 168 8.0 12.9 0.00 0.00 0.00 59 1010.4
20260502163913 32 214 3.2 6.4 0.00 0.00 0.00 60 1010.3
20260502163409 32 264 6.4 12.9 0.00 0.00 0.00 61 1010.3
20260502162907 32 174 9.7 14.5 0.00 0.00 0.00 61 1010.2
20260502162403 31 231 6.4 16.1 0.00 0.00 0.00 62 1010.1
20260502161900 32 174 4.8 6.4 0.00 0.00 0.00 63 1010.4
20260502161356 32 159 6.4 9.7 0.00 0.00 0.00 62 1010.3
20260502160854 31 224 3.2 11.3 0.00 0.00 0.00 64 1010.3
20260502160353 31 215 6.4 9.7 0.00 0.00 0.00 64 1010.1
20260502152328 31 196 3.2 17.7 0.00 0.00 0.00 65 1009.9
20260502151825 31 251 14.5 22.5 0.00 0.00 0.00 67 1010.0
20260502151322 31 166 6.4 12.9 0.00 0.00 0.00 68 1010.0
20260502150820 31 177 4.8 6.4 0.00 0.00 0.00 69 1010.1
20260502150316 30 188 6.4 11.3 0.00 0.00 0.00 69 1010.0
20260502130704 27 170 4.8 6.4 0.00 0.00 0.00 84 1009.8
20260502130202 26 182 1.6 3.2 0.00 0.00 0.00 85 1010.0
20260502123647 25 178 3.2 3.2 0.00 0.00 0.00 90 1009.5
20260502123144 25 185 1.6 1.6 0.00 0.00 0.00 91 1009.4
20260502122641 24 165 0.0 1.6 0.00 0.00 0.00 92 1009.6
20260502122137 24 169 0.0 0.0 0.00 0.00 0.00 93 1009.5
20260502121636 23 178 0.0 1.6 0.00 0.00 0.00 94 1009.3
20260502121133 23 179 0.0 1.6 0.00 0.00 0.00 94 1009.4
20260502120629 23 172 0.0 0.0 0.00 0.00 0.00 94 1009.5
20260502120126 23 168 1.6 1.6 0.00 0.00 0.00 95 1009.6
20260502115624 22 159 0.0 0.0 0.00 0.00 0.00 96 1009.4
20260502115119 22 179 0.0 0.0 0.00 0.00 0.00 97 1009.2
20260502114616 22 163 0.0 0.0 0.00 0.00 0.00 97 1009.4
20260502114113 22 176 0.0 0.0 0.00 0.00 0.00 98 1009.4
20260502113610 21 174 1.6 3.2 0.00 0.00 0.00 99 1009.4
20260502113109 21 166 0.0 1.6 0.00 0.00 0.00 99 1009.2
20260502112606 21 176 0.0 0.0 0.00 0.00 0.00 99 1009.6
20260502112104 21 171 0.0 1.6 0.00 0.00 0.00 99 1009.4
20260502111601 21 163 1.6 1.6 0.00 0.00 0.00 99 1009.3
20260502111058 21 175 0.0 0.0 0.00 0.00 0.00 99 1009.5
20260502110556 20 175 0.0 0.0 0.00 0.00 0.00 99 1009.4
20260502110053 20 175 0.0 0.0 0.00 0.00 0.00 99 1009.3
20260502105550 20 175 0.0 0.0 0.00 0.00 0.00 99 1009.4
20260502105048 20 172 0.0 0.0 0.00 0.00 0.00 99 1009.3
20260502104545 20 172 0.0 0.0 0.00 0.00 0.00 99 1009.2
20260502104042 20 172 0.0 0.0 0.00 0.00 0.00 99 1009.3
20260502103540 20 172 0.0 0.0 0.00 0.00 0.00 99 1009.5
20260502103038 20 172 0.0 0.0 0.00 0.00 0.00 99 1009.4
20260502102534 20 172 0.0 0.0 0.00 0.00 0.00 99 1009.3
20260502102031 20 172 0.0 0.0 0.00 0.00 0.00 99 1009.2
20260502101529 -17 0.0 0.0 0.00 0.00 0.00 1009.4
20260502101027 -17 0.0 0.0 0.00 0.00 0.00 1009.3
20260502100525 -17 0.0 0.0 0.00 0.00 0.00 1009.4
20260502091500 -17 0.0 0.0 0.00 0.00 0.00 1009.6
20260502090957 -17 0.0 0.0 0.00 0.00 0.00 1009.5
20260502090454 -17 0.0 0.0 0.00 0.00 0.00 1009.6
20260502071349 -17 0.0 0.0 0.00 0.00 0.00 1009.5
20260502070847 -17 0.0 0.0 0.00 0.00 0.00 1009.6
20260502070344 -17 0.0 0.0 0.00 0.00 0.00 1009.6
20260502065843 -17 0.0 0.0 0.00 0.00 0.00 1009.8
20260502065340 -17 0.0 0.0 0.00 0.00 0.00 1009.7
20260502064838 -17 0.0 0.0 0.00 0.00 0.00 1009.7
20260502064336 -17 0.0 0.0 0.00 0.00 0.00 1009.8
20260502063833 18 171 0.0 0.0 0.00 0.00 0.00 99 1009.6
20260502063331 18 171 0.0 0.0 0.00 0.00 0.00 99 1009.8
20260502062828 18 171 0.0 0.0 0.00 0.00 0.00 99 1009.7
20260502062325 18 171 0.0 0.0 0.00 0.00 0.00 99 1009.8
20260502061824 18 171 0.0 0.0 0.00 0.00 0.00 99 1009.8
20260502061321 18 171 0.0 0.0 0.00 0.00 0.00 99 1009.9
20260502060817 18 171 0.0 0.0 0.00 0.00 0.00 99 1009.9
20260502060312 18 171 0.0 0.0 0.00 0.00 0.00 99 1009.9
20260502055810 18 171 0.0 0.0 0.00 0.00 0.00 99 1010.1
20260502055308 18 171 0.0 0.0 0.00 0.00 0.00 99 1010.0
20260502054807 18 171 0.0 0.0 0.00 0.00 0.00 99 1010.0
20260502054304 18 171 0.0 0.0 0.00 0.00 0.00 99 1010.2
20260502053801 18 170 0.0 0.0 0.00 0.00 0.00 99 1010.2
20260502053258 18 171 0.0 0.0 0.00 0.00 0.00 99 1010.2
20260502052756 18 171 0.0 0.0 0.00 0.00 0.00 99 1010.2
20260502052254 18 171 0.0 0.0 0.00 0.00 0.00 99 1010.3
20260502051752 18 171 0.0 0.0 0.00 0.00 0.00 99 1010.4
20260502051250 18 171 0.0 0.0 0.00 0.00 0.00 99 1010.4
20260502050746 18 171 0.0 0.0 0.00 0.00 0.00 99 1010.6
20260502050242 18 171 0.0 0.0 0.00 0.00 0.00 99 1010.6
20260502045740 18 171 0.0 0.0 0.00 0.00 0.00 98 1010.4
20260502045236 18 171 0.0 0.0 0.00 0.00 0.00 98 1010.7
20260502044733 18 171 0.0 0.0 0.00 0.00 0.00 98 1010.6
20260502044229 18 171 0.0 0.0 0.00 0.00 0.00 98 1010.5
20260502043727 18 171 0.0 0.0 0.00 0.00 0.00 98 1010.6
20260502043225 18 171 0.0 0.0 0.00 0.00 0.00 98 1010.5
20260502042724 18 171 0.0 0.0 0.00 0.00 0.00 97 1010.5
20260502042221 18 171 0.0 0.0 0.00 0.00 0.00 97 1010.4
20260502041719 18 171 0.0 0.0 0.00 0.00 0.00 97 1010.5
20260502041216 18 171 0.0 0.0 0.00 0.00 0.00 97 1010.4
20260502040713 18 171 0.0 0.0 0.00 0.00 0.00 97 1010.5
20260502040210 18 171 0.0 0.0 0.00 0.00 0.00 97 1010.4
20260502035706 18 171 0.0 0.0 0.00 0.00 0.00 96 1010.4
20260502035203 18 171 0.0 0.0 0.00 0.00 0.00 96 1010.2
20260502034700 18 171 0.0 0.0 0.00 0.00 0.00 96 1010.5